Weather History for Howell, MI

Change the Weather History Date:

Thursday, September 4, 2014

  Actual Average Record
Temperature  
Mean Temperature 70 °F -  
Max Temperature 80 °F 78 °F 93 °F (1999)
Min Temperature 60 °F 55 °F 39 °F (1997)
Cooling Degree Days 5    
Growing Degree Days 20 (Base 50)    
Moisture  
Dew Point 65 °F    
Average Humidity 79    
Maximum Humidity 94    
Minimum Humidity 62    
Precipitation  
Precipitation 0.00 in - - ()
Sea Level Pressure  
Sea Level Pressure 30.02 in    
Wind  
Wind Speed 5 mph (SSW)    
Max Wind Speed 16 mph    
Max Gust Speed 28 mph    
Visibility 10 miles    
Events      
Averages and records for this station are not official NWS values.
T = Trace of Precipitation, MM = Missing Value Source: NWS Daily Summary

Daily Weather History Graph

Daily Weather History Graph

Search for Another Location

Airport:

Trip Planner

Search our weather history database for the weather conditions in past years. The results will help you decide how hot, cold, wet, or windy it might be!

Date:

Astronomy

Sep. 04, 2014 Rise Set
Actual Time 7:04 AM EDT 8:05 PM EDT
Civil Twilight 6:35 AM EDT 8:33 PM EDT
Nautical Twilight 6:00 AM EDT 9:08 PM EDT
Astronomical Twilight 5:24 AM EDT 9:43 PM EDT
Moon 4:45 PM EDT (9/4) 1:49 AM EDT (9/4)
Length of Visible Light 13h 58m
Length of Day
13h 01m
Waxing Gibbous, 74% of the Moon is Illuminated
Sep 4
Waxing Gibbous
Sep 8
Full
Sep 15
Last Quarter
Sep 24
New
Oct 1
First Quarter

Hourly Weather History & Observations

Time (EDT) Temp. Heat Index Dew Point Humidity Pressure Visibility Wind Dir Wind Speed Gust Speed Precip Events Conditions
12:15 AM 66.0 °F - 62.8 °F 89% 30.05 in 10.0 mi SSE 3.5 mph - N/A   Clear
12:35 AM 65.3 °F - 63.0 °F 92% 30.05 in 10.0 mi Calm Calm - N/A   Clear
12:55 AM 65.1 °F - 63.1 °F 93% 30.05 in 10.0 mi Calm Calm - N/A   Clear
1:15 AM 64.8 °F - 62.4 °F 92% 30.05 in 10.0 mi SSE 3.5 mph - N/A   Clear
1:35 AM 65.3 °F - 63.0 °F 92% 30.06 in 10.0 mi SSW 3.5 mph - N/A   Clear
1:55 AM 66.2 °F - 62.1 °F 86% 30.06 in 10.0 mi SSW 3.5 mph - N/A   Clear
2:15 AM 66.0 °F - 61.2 °F 84% 30.05 in 10.0 mi SSW 3.5 mph - N/A   Clear
2:35 AM 65.7 °F - 60.6 °F 84% 30.05 in 10.0 mi Calm Calm - N/A   Clear
2:55 AM 66.4 °F - 59.9 °F 80% 30.04 in 10.0 mi SSW 4.6 mph - N/A   Clear
3:15 AM 65.5 °F - 59.4 °F 81% 30.04 in 10.0 mi South 3.5 mph - N/A   Clear
3:35 AM 65.5 °F - 59.9 °F 82% 30.03 in 10.0 mi South 6.9 mph - N/A   Clear
3:55 AM 66.0 °F - 59.5 °F 80% 30.04 in 10.0 mi SSW 3.5 mph - N/A   Clear
4:15 AM 65.3 °F - 59.4 °F 81% 30.04 in 10.0 mi Calm Calm - N/A   Clear
4:35 AM 65.1 °F - 59.9 °F 83% 30.04 in 10.0 mi Calm Calm - N/A   Clear
4:55 AM 64.6 °F - 59.4 °F 83% 30.03 in 10.0 mi South 3.5 mph - N/A   Clear
5:15 AM 64.6 °F - 60.1 °F 85% 30.03 in 10.0 mi SSE 5.8 mph - N/A   Clear
5:35 AM 61.3 °F - 58.8 °F 91% 30.03 in 10.0 mi Calm Calm - N/A   Clear
5:55 AM 64.9 °F - 60.8 °F 86% 30.03 in 10.0 mi SSW 3.5 mph - N/A   Clear
6:15 AM 62.6 °F - 59.0 °F 88% 30.03 in 10.0 mi ESE 3.5 mph - N/A   Clear
6:35 AM 60.6 °F - 58.5 °F 93% 30.03 in 10.0 mi SE 4.6 mph - N/A   Clear
6:54 AM 60.4 °F - 58.8 °F 94% 30.03 in 10.0 mi SE 4.6 mph - N/A   Clear
7:15 AM 62.1 °F - 59.9 °F 93% 30.03 in 10.0 mi SSW 3.5 mph - N/A   Clear
7:35 AM 61.0 °F - 58.8 °F 93% 30.03 in 10.0 mi SE 4.6 mph - N/A   Clear
7:54 AM 62.2 °F - 60.6 °F 94% 30.03 in 10.0 mi SE 3.5 mph - N/A   Clear
8:15 AM 64.8 °F - 61.9 °F 90% 30.04 in 10.0 mi Calm Calm - N/A   Clear
8:35 AM 67.6 °F - 62.6 °F 84% 30.04 in 10.0 mi South 8.1 mph - N/A   Clear
8:54 AM 69.1 °F - 63.0 °F 81% 30.05 in 10.0 mi SSW 6.9 mph - N/A   Clear
9:15 AM 70.2 °F - 62.8 °F 77% 30.05 in 10.0 mi SSW 10.4 mph - N/A   Clear
9:35 AM 71.8 °F - 63.5 °F 75% 30.03 in 10.0 mi SSW 10.4 mph - N/A   Clear
10:15 AM 72.5 °F - 63.3 °F 73% 30.03 in 10.0 mi SSW 12.7 mph 17.3 mph N/A   Clear
10:35 AM 73.8 °F - 63.5 °F 70% 30.03 in 10.0 mi SSW 11.5 mph 17.3 mph N/A   Clear
10:54 AM 74.5 °F - 64.4 °F 71% 30.03 in 10.0 mi SSW 10.4 mph 16.1 mph N/A   Clear
11:15 AM 75.6 °F - 65.3 °F 70% 30.04 in 10.0 mi SW 9.2 mph - N/A   Clear
11:35 AM 75.7 °F - 64.6 °F 68% 30.03 in 10.0 mi SW 12.7 mph 19.6 mph N/A   Clear
11:55 AM 76.3 °F - 64.6 °F 67% 30.02 in 10.0 mi SSW 13.8 mph 17.3 mph N/A   Clear
12:15 PM 77.9 °F - 64.9 °F 64% 30.00 in 10.0 mi SSW 15.0 mph 21.9 mph N/A   Clear
12:35 PM 78.1 °F - 64.8 °F 63% 29.99 in 10.0 mi SW 11.5 mph 27.6 mph N/A   Clear
12:55 PM 77.4 °F - 64.6 °F 65% 29.99 in 10.0 mi SSW 16.1 mph 23.0 mph N/A   Clear
1:15 PM 76.6 °F - 64.9 °F 67% 29.97 in 10.0 mi South 15.0 mph 20.7 mph N/A   Clear
1:35 PM 78.6 °F - 66.2 °F 66% 29.96 in 10.0 mi South 13.8 mph 23.0 mph N/A   Clear
1:55 PM 78.1 °F - 65.5 °F 65% 29.97 in 10.0 mi South 11.5 mph 25.3 mph N/A   Clear
2:15 PM 79.5 °F - 66.4 °F 64% 29.96 in 10.0 mi South 13.8 mph 21.9 mph N/A   Clear
2:35 PM 78.8 °F - 66.4 °F 66% 29.98 in 10.0 mi South 9.2 mph 18.4 mph N/A   Clear
2:55 PM 79.0 °F - 67.5 °F 68% 29.99 in 10.0 mi SSW 6.9 mph - N/A   Clear
3:15 PM 79.9 °F - 67.1 °F 65% 30.00 in 10.0 mi WSW 4.6 mph - N/A   Clear
3:35 PM 80.8 °F 83.1 °F 66.7 °F 62% 30.00 in 10.0 mi West 4.6 mph - N/A   Clear
3:55 PM 80.2 °F 82.8 °F 67.8 °F 66% 30.00 in 10.0 mi NW 4.6 mph - N/A   Clear
4:15 PM 79.3 °F - 67.5 °F 67% 30.00 in 10.0 mi WSW 4.6 mph - N/A   Clear
4:34 PM 79.0 °F - 68.9 °F 71% 30.03 in 10.0 mi NW 9.2 mph - N/A   Clear
4:55 PM 77.2 °F - 68.4 °F 74% 30.06 in 10.0 mi NW 8.1 mph - N/A   Scattered Clouds
5:15 PM 76.5 °F - 67.3 °F 73% 30.05 in 10.0 mi NNW 8.1 mph - N/A   Scattered Clouds
5:34 PM 77.2 °F - 67.6 °F 72% 30.04 in 10.0 mi North 4.6 mph - N/A   Scattered Clouds
5:55 PM 77.4 °F - 67.6 °F 72% 30.04 in 10.0 mi NNW 5.8 mph - N/A   Scattered Clouds
6:15 PM 77.2 °F - 68.4 °F 74% 30.02 in 10.0 mi North 5.8 mph - N/A   Mostly Cloudy
6:34 PM 77.5 °F - 68.2 °F 73% 30.03 in 10.0 mi NNE 3.5 mph - N/A   Scattered Clouds
6:55 PM 77.0 °F - 68.2 °F 74% 30.01 in 10.0 mi ESE 4.6 mph - N/A   Clear
7:15 PM 74.7 °F - 68.2 °F 80% 30.01 in 10.0 mi SSE 6.9 mph - N/A   Clear
7:34 PM 74.7 °F - 68.0 °F 80% 29.99 in 10.0 mi SSE 6.9 mph - N/A   Clear
7:55 PM 74.3 °F - 68.0 °F 81% 29.98 in 10.0 mi SSE 6.9 mph - N/A   Clear
8:15 PM 74.3 °F - 68.0 °F 81% 29.99 in 10.0 mi SSE 6.9 mph - N/A   Clear
8:34 PM 73.6 °F - 68.2 °F 83% 30.01 in 10.0 mi South 6.9 mph - N/A   Clear
8:55 PM 72.9 °F - 68.5 °F 86% 30.01 in 10.0 mi South 5.8 mph - N/A   Clear
9:15 PM 72.9 °F - 68.9 °F 87% 30.01 in 10.0 mi South 6.9 mph - N/A   Clear
9:34 PM 73.0 °F - 69.4 °F 88% 30.01 in 10.0 mi South 9.2 mph - N/A   Clear
10:15 PM 72.5 °F - 69.4 °F 90% 30.03 in 10.0 mi SSW 5.8 mph - N/A   Clear
10:34 PM 72.1 °F - 69.4 °F 91% 30.05 in 7.0 mi SSW 3.5 mph - N/A   Clear
10:55 PM 71.6 °F - 68.9 °F 91% 30.06 in 7.0 mi SW 4.6 mph - N/A   Scattered Clouds
11:15 PM 72.0 °F - 69.3 °F 91% 30.06 in 10.0 mi South 4.6 mph - N/A   Mostly Cloudy
11:35 PM 72.5 °F - 69.1 °F 89% 30.05 in 10.0 mi SSW 4.6 mph - N/A   Mostly Cloudy
11:55 PM 73.4 °F - 68.4 °F 84% 30.04 in 10.0 mi SSW 6.9 mph - N/A   Scattered Clouds